Wind_Speed
35 35 37 37 35 34 30 28 27 23 22 24 25 24 24 24 23 22 21 22 23 26 28 28 29 31 34 37 41 44 48 52 55 58 61 63 65 67 69 71 74 77 79 82
31 34 36 39 39 36 33 30 28 28 20 23 23 24 24 23 22 23 23 25 26 28 28 30 32 34 37 41 45 48 52 56 59 62 64 66 68 69 71 73 76 79 82 86
29 34 36 38 39 37 35 33 29 24 20 24 23 24 24 23 24 25 27 28 29 29 31 33 34 37 40 45 49 53 56 60 63 65 67 68 69 70 72 75 79 82 86 89
28 33 34 31 33 34 33 30 27 22 20 21 22 23 24 25 26 28 29 29 28 30 31 33 36 40 44 48 52 56 60 63 65 67 68 68 69 72 75 78 82 85 88 90
21 22 22 23 24 25 23 21 22 22 22 23 24 25 26 28 29 29 28 28 29 31 32 35 39 44 48 52 56 60 63 65 66 67 67 68 71 74 77 81 85 88 92 94
22 18 19 19 20 22 22 20 21 23 25 26 27 28 29 30 31 30 28 29 30 33 35 38 43 47 51 56 59 62 65 65 65 65 67 69 73 76 79 83 88 92 95 95
23 21 21 24 24 24 24 21 21 23 27 30 32 32 31 30 30 31 30 31 33 35 39 43 48 52 56 59 62 65 65 64 64 65 68 70 73 77 81 86 91 94 95 92
23 22 20 23 25 25 26 26 26 26 27 28 30 32 31 29 29 30 32 33 36 40 44 48 52 56 59 61 64 64 63 62 63 66 68 71 75 80 86 91 94 95 91 87
20 20 19 16 16 19 23 27 28 29 28 28 26 26 27 28 29 30 32 36 41 45 49 53 56 58 60 63 62 60 60 61 63 66 71 75 80 86 91 95 96 93 87 83
15 14 16 16 16 17 20 23 25 25 25 26 26 26 27 29 31 34 38 42 46 49 52 55 57 59 61 59 57 57 58 61 66 70 75 80 86 92 97 97 93 88 82 76
12 13 16 18 18 19 21 22 23 25 27 28 28 29 31 33 36 41 44 46 49 51 54 56 58 57 53 53 54 56 61 66 71 75 80 86 92 96 96 93 88 82 76 70
13 14 16 18 19 21 23 25 25 26 28 30 32 34 36 39 41 44 46 48 50 52 54 53 51 49 50 51 55 61 66 71 76 80 86 93 96 94 91 86 79 72 68 66
18 19 21 22 24 25 27 29 30 31 32 33 35 37 39 41 44 46 48 50 50 49 47 46 46 47 50 55 61 67 72 77 81 86 92 94 93 90 84 77 69 64 64 65
23 24 25 27 28 29 30 31 31 32 33 34 36 38 40 43 45 47 47 46 44 43 44 45 46 49 54 61 67 72 78 82 86 90 93 92 88 83 76 68 63 62 63 65
26 27 28 29 31 33 32 30 30 31 33 35 37 40 43 45 45 43 41 40 42 43 44 46 50 54 60 66 72 78 85 89 90 91 91 87 81 74 67 64 63 63 64 67
31 33 34 34 33 32 31 32 33 35 36 39 41 43 44 42 39 38 40 42 42 44 47 50 55 61 67 72 77 83 89 91 92 91 86 79 72 66 65 65 65 67 70 76
35 34 33 31 31 31 33 34 36 38 40 41 42 41 39 37 38 40 41 43 45 48 51 56 62 68 73 77 81 87 91 92 90 84 76 69 65 65 67 68 69 73 77 76
33 32 32 32 33 34 35 36 37 38 40 41 40 38 39 39 40 42 44 46 49 53 57 62 67 73 78 82 86 90 92 89 83 74 68 65 66 68 69 72 77 78 70 57
32 31 30 31 31 32 34 36 37 39 40 40 40 40 40 41 43 44 46 49 53 57 62 67 72 77 81 85 88 90 89 81 73 67 64 65 68 69 73 76 72 62 50 42
29 30 32 33 33 35 36 38 39 40 40 40 40 41 41 42 44 46 49 53 57 62 68 72 76 79 83 87 89 87 80 71 66 63 64 67 69 71 70 63 54 45 39 35
33 34 35 36 37 38 39 39 40 39 39 39 40 40 42 44 47 51 54 58 62 68 73 76 78 82 86 88 87 78 70 65 63 64 66 68 69 64 56 50 44 38 33 30
36 37 38 38 38 38 38 38 38 38 38 39 39 42 45 48 52 55 59 63 68 73 76 78 81 84 88 86 78 69 63 62 63 65 67 67 61 52 49 45 38 33 28 23
37 38 38 37 37 37 37 38 38 38 39 40 43 46 49 52 56 60 64 68 72 75 77 80 84 87 86 77 68 63 62 62 64 65 65 59 52 49 45 37 31 27 22 17
37 37 37 37 37 37 38 38 40 41 43 46 49 52 55 58 61 65 69 72 74 76 79 83 86 84 76 67 63 61 62 64 65 64 58 52 50 45 36 29 26 21 18 14
35 36 36 37 38 39 40 41 43 46 49 51 54 57 60 64 67 70 72 74 75 78 82 85 81 73 66 62 61 62 64 65 63 56 50 48 42 34 28 24 21 18 16 6
36 37 37 39 40 42 43 45 48 51 54 57 60 63 66 70 72 73 73 75 78 82 82 78 71 65 62 62 63 65 64 60 53 48 45 38 33 28 25 22 19 16 7 9
37 37 39 40 42 44 47 50 54 57 60 63 65 67 69 71 71 73 75 79 81 80 75 69 64 62 63 65 66 64 58 50 46 42 36 32 30 27 23 21 16 7 10 19
Wind_Direction
208 207 207 209 216 222 225 225 228 235 245 250 250 244 242 244 247 251 258 265 272 277 280 283 285 288 293 298 301 304 306 308 308 309 309 308 309 309 309 309 309 309 310 311
207 210 214 217 221 224 225 228 227 234 240 247 248 247 248 246 246 252 261 269 274 278 281 284 288 293 298 301 304 306 307 308 309 309 309 310 310 309 309 309 310 311 313 314
212 213 215 218 221 227 232 235 232 237 236 242 245 247 250 252 254 259 264 270 274 279 283 288 292 297 300 303 306 307 308 308 309 309 310 310 310 310 310 311 313 314 315 317
218 223 227 224 227 232 237 236 231 232 241 247 250 252 255 257 261 264 267 270 275 281 286 290 296 300 303 305 307 307 308 308 309 309 309 309 310 311 312 314 315 316 316 317
213 221 232 229 230 230 229 226 230 236 245 253 256 258 257 259 261 264 267 272 279 284 289 294 298 302 305 306 306 307 308 309 309 309 310 310 311 312 314 315 316 316 316 316
217 221 227 220 219 220 223 229 237 242 246 252 255 257 261 264 265 265 268 275 282 286 291 296 301 304 305 306 306 307 308 308 309 310 311 311 313 314 316 317 318 317 317 317
214 227 223 224 225 225 229 231 239 246 250 254 258 261 264 267 266 268 274 280 283 289 294 299 301 303 304 306 307 308 309 311 312 312 313 315 316 317 318 320 320 319 317 316
223 225 231 235 236 235 235 237 245 252 256 260 264 262 262 263 265 271 276 281 287 293 296 298 301 303 304 307 309 311 312 313 314 315 316 317 317 318 319 319 318 317 315 314
228 238 240 240 244 252 246 246 252 255 257 262 267 265 264 267 271 276 281 286 290 293 296 298 301 304 306 309 311 313 314 315 315 315 316 317 317 318 317 317 316 315 314 313
232 226 234 242 250 256 257 255 257 260 261 264 266 268 269 272 276 281 285 289 292 295 297 300 303 305 308 310 312 315 316 316 315 315 316 316 317 318 317 316 314 313 313 313
227 236 245 250 256 260 261 261 260 259 261 262 263 267 272 277 281 285 288 291 293 296 299 302 305 308 310 312 314 316 316 317 317 317 317 318 318 318 317 315 314 314 314 315
245 249 254 261 267 267 266 266 265 265 264 264 268 273 278 281 283 287 290 293 296 299 302 305 307 309 311 313 314 316 317 318 318 318 318 319 318 317 316 315 315 315 316 316
250 255 260 265 268 269 268 266 266 266 266 268 270 274 278 282 286 290 292 295 299 303 305 307 308 309 312 314 316 318 318 318 318 318 319 319 318 317 316 317 317 316 316 316
256 258 260 263 266 268 269 269 269 270 271 272 274 278 281 285 289 292 296 300 303 305 306 306 307 309 314 317 319 319 319 319 319 319 319 318 317 317 318 318 318 317 317 317
260 266 268 269 270 272 272 272 272 273 274 276 278 282 286 289 293 297 299 302 304 305 304 305 309 313 318 320 320 320 321 320 319 319 318 318 318 318 318 319 318 318 318 317
263 267 269 269 269 269 269 269 270 273 276 280 283 287 290 294 296 299 302 303 303 303 305 309 313 317 320 321 321 321 321 320 318 317 317 318 318 318 318 318 319 319 318 317
263 265 266 265 263 263 264 266 271 276 280 282 286 291 294 295 298 300 301 302 303 307 310 313 316 319 320 319 319 319 320 318 317 316 317 318 318 318 318 319 319 318 319 319
254 255 257 259 261 265 268 272 276 279 283 288 292 293 294 297 299 301 303 305 308 310 313 315 318 319 318 317 317 318 318 317 317 317 318 318 318 319 319 319 319 319 319 319
260 262 264 266 268 270 272 276 280 285 289 291 293 294 297 299 301 303 305 308 311 313 315 317 318 317 316 316 317 318 317 316 317 318 319 319 319 319 319 320 321 321 321 321
259 261 263 265 268 272 276 281 285 287 289 291 294 296 299 300 301 303 306 310 313 315 316 316 315 315 315 316 317 316 316 316 317 318 318 319 319 320 322 324 325 325 325 326
260 262 265 268 272 277 281 285 288 290 291 293 295 297 298 300 303 306 309 312 314 315 315 314 314 314 315 316 316 315 315 316 316 317 318 319 320 322 325 327 327 327 328 331
266 268 271 273 276 280 284 287 288 289 291 293 295 297 300 303 306 308 309 311 313 313 312 312 312 314 315 315 314 313 314 315 316 317 318 320 321 322 324 326 327 328 331 336
268 270 271 273 277 280 282 283 284 287 291 294 298 301 303 305 308 309 310 310 310 310 310 311 313 314 315 314 313 313 313 314 316 317 318 319 320 320 322 324 325 328 331 337
268 269 271 273 276 277 279 282 285 290 294 297 300 302 305 307 308 308 309 308 308 308 310 312 314 314 314 313 312 312 313 314 315 316 318 318 319 321 322 322 323 325 328 330
265 267 269 271 273 275 279 284 289 293 296 299 301 303 306 307 307 307 307 306 307 309 311 313 314 313 313 312 312 312 313 314 316 317 317 318 320 321 321 320 319 320 320 309
264 265 268 271 275 279 284 289 293 296 299 301 303 305 307 307 307 306 306 307 309 311 312 313 313 312 312 312 312 312 313 315 317 317 318 318 318 319 319 317 317 316 301 167
265 268 272 276 281 286 289 292 295 298 300 303 304 305 306 305 305 305 307 309 310 311 312 312 312 312 312 312 312 313 314 315 316 317 317 315 313 313 311 310 311 301 168 155
Height
5669 5675 5681 5686 5690 5693 5697 5701 5705 5707 5708 5708 5708 5710 5711 5712 5713 5714 5714 5714 5714 5713 5712 5710 5708 5705 5702 5698 5693 5688 5683 5677 5671 5664 5656 5648 5639 5630 5620 5610 5600 5589 5578 5566
5666 5671 5676 5680 5685 5688 5692 5694 5698 5700 5704 5702 5703 5704 5705 5706 5708 5708 5708 5707 5707 5705 5704 5702 5700 5697 5693 5688 5683 5678 5672 5665 5658 5651 5642 5633 5624 5615 5606 5595 5584 5573 5561 5549
5662 5666 5670 5675 5680 5683 5685 5688 5692 5695 5698 5697 5698 5698 5699 5700 5701 5702 5702 5701 5699 5698 5696 5694 5691 5687 5683 5679 5673 5667 5660 5653 5645 5637 5628 5619 5610 5601 5592 5580 5569 5557 5545 5531
5657 5662 5666 5675 5675 5678 5679 5682 5686 5690 5691 5691 5692 5693 5693 5694 5694 5694 5694 5693 5692 5690 5688 5686 5683 5679 5674 5668 5662 5655 5648 5640 5632 5623 5614 5605 5596 5587 5576 5565 5554 5541 5528 5514
5654 5657 5662 5668 5671 5673 5676 5679 5682 5684 5685 5685 5686 5687 5687 5688 5687 5687 5686 5685 5684 5682 5680 5677 5673 5669 5663 5657 5651 5643 5635 5626 5617 5609 5600 5591 5582 5572 5561 5550 5538 5524 5510 5497
5650 5654 5658 5664 5666 5667 5671 5674 5676 5677 5678 5678 5679 5680 5681 5680 5680 5679 5678 5677 5676 5675 5671 5668 5663 5658 5653 5646 5638 5630 5621 5612 5604 5595 5587 5577 5567 5557 5546 5534 5520 5506 5491 5477
5646 5649 5653 5658 5660 5662 5666 5670 5670 5670 5671 5671 5672 5673 5673 5672 5671 5671 5671 5670 5669 5666 5662 5658 5653 5648 5641 5633 5625 5616 5607 5597 5589 5581 5572 5563 5552 5541 5529 5516 5502 5488 5472 5457
5642 5644 5650 5652 5653 5657 5660 5661 5661 5663 5663 5664 5664 5664 5664 5664 5664 5665 5664 5662 5660 5657 5653 5648 5642 5636 5628 5620 5610 5601 5592 5584 5575 5566 5557 5547 5536 5524 5510 5496 5483 5468 5453 5439
5640 5643 5644 5646 5649 5651 5652 5653 5654 5656 5656 5657 5657 5657 5657 5657 5657 5657 5656 5653 5650 5647 5642 5637 5630 5622 5614 5605 5596 5587 5579 5570 5561 5552 5541 5529 5517 5504 5491 5476 5462 5448 5435 5423
5635 5637 5639 5642 5644 5645 5646 5648 5649 5649 5650 5650 5650 5650 5650 5650 5649 5648 5647 5643 5640 5635 5629 5623 5616 5607 5599 5590 5582 5574 5566 5557 5547 5537 5525 5512 5499 5485 5470 5454 5440 5427 5415 5404
5631 5633 5635 5636 5638 5640 5641 5642 5642 5642 5642 5642 5643 5643 5642 5642 5640 5638 5636 5632 5627 5622 5615 5608 5601 5593 5584 5578 5570 5562 5553 5543 5532 5520 5508 5495 5481 5465 5450 5434 5418 5406 5395 5385
5628 5630 5631 5633 5633 5633 5634 5635 5635 5635 5635 5635 5635 5634 5633 5631 5630 5627 5624 5619 5614 5607 5601 5594 5587 5580 5573 5566 5558 5549 5538 5527 5516 5504 5490 5476 5461 5447 5431 5418 5404 5389 5376 5367
5624 5625 5626 5627 5627 5627 5628 5628 5628 5628 5628 5627 5626 5625 5623 5621 5618 5615 5611 5606 5600 5593 5587 5581 5575 5569 5562 5554 5545 5535 5524 5512 5499 5485 5471 5455 5441 5427 5415 5401 5388 5377 5366 5356
5617 5618 5618 5620 5620 5620 5620 5620 5619 5619 5618 5618 5616 5614 5612 5610 5606 5602 5597 5591 5586 5581 5575 5570 5563 5557 5549 5540 5530 5519 5507 5495 5481 5466 5450 5435 5422 5408 5396 5385 5376 5366 5355 5344
5608 5609 5610 5611 5610 5610 5609 5609 5609 5609 5608 5606 5605 5603 5600 5597 5593 5589 5584 5579 5574 5569 5564 5558 5551 5543 5535 5525 5514 5502 5489 5475 5461 5446 5431 5417 5404 5392 5380 5370 5361 5352 5342 5330
5599 5599 5600 5600 5600 5600 5600 5599 5599 5598 5597 5595 5593 5591 5588 5584 5580 5576 5572 5568 5564 5558 5552 5545 5537 5528 5519 5508 5496 5484 5471 5457 5442 5428 5413 5400 5388 5377 5366 5357 5347 5337 5325 5313
5589 5589 5590 5591 5591 5590 5590 5590 5589 5588 5586 5584 5581 5579 5575 5572 5569 5565 5562 5557 5552 5546 5538 5530 5521 5512 5502 5491 5480 5467 5454 5440 5425 5411 5397 5385 5374 5363 5353 5343 5332 5322 5309 5296
5579 5580 5581 5581 5581 5582 5581 5580 5578 5576 5574 5572 5569 5566 5564 5561 5558 5555 5550 5544 5538 5532 5524 5515 5506 5496 5485 5475 5463 5449 5435 5422 5408 5395 5383 5371 5360 5349 5339 5328 5316 5305 5293 5282
5570 5571 5571 5571 5571 5571 5571 5569 5568 5566 5563 5561 5559 5556 5554 5551 5547 5543 5537 5531 5524 5517 5509 5500 5490 5480 5469 5457 5444 5431 5418 5404 5392 5381 5370 5359 5349 5338 5326 5314 5302 5290 5280 5273
5561 5562 5562 5562 5562 5562 5561 5559 5558 5556 5554 5552 5549 5546 5543 5539 5535 5529 5523 5517 5510 5501 5492 5483 5473 5463 5451 5439 5426 5413 5400 5389 5378 5368 5357 5347 5336 5325 5314 5302 5290 5281 5273 5266
5552 5552 5553 5553 5553 5552 5551 5549 5547 5545 5543 5540 5537 5534 5531 5527 5521 5516 5509 5502 5494 5485 5476 5466 5456 5445 5433 5421 5408 5395 5385 5375 5365 5356 5346 5335 5325 5314 5303 5294 5285 5276 5269 5263
5542 5543 5543 5542 5542 5541 5540 5538 5536 5534 5531 5529 5526 5522 5518 5513 5507 5501 5493 5486 5478 5469 5459 5449 5438 5426 5414 5402 5390 5380 5370 5361 5352 5343 5334 5323 5314 5304 5296 5288 5280 5273 5267 5262
5532 5532 5532 5532 5531 5530 5529 5527 5525 5523 5521 5518 5514 5509 5504 5498 5491 5485 5478 5470 5461 5451 5441 5431 5419 5407 5395 5384 5374 5365 5356 5348 5339 5331 5321 5311 5303 5295 5288 5281 5275 5269 5265 5261
5522 5522 5522 5521 5520 5518 5517 5516 5514 5512 5508 5504 5499 5494 5488 5482 5475 5469 5461 5452 5443 5433 5423 5412 5400 5388 5377 5368 5360 5351 5343 5335 5326 5317 5308 5299 5292 5285 5279 5274 5270 5266 5263 5261
5512 5512 5511 5510 5509 5508 5506 5505 5502 5499 5495 5490 5484 5478 5472 5466 5459 5452 5443 5433 5424 5414 5403 5391 5380 5370 5361 5353 5345 5337 5329 5320 5311 5303 5295 5288 5282 5276 5272 5269 5266 5263 5261 5258
5502 5502 5502 5500 5498 5496 5494 5491 5488 5484 5479 5474 5468 5463 5456 5449 5441 5432 5423 5415 5405 5395 5383 5372 5363 5355 5346 5338 5330 5322 5313 5305 5297 5290 5284 5278 5274 5270 5267 5264 5261 5259 5257 5257
5491 5491 5490 5488 5486 5484 5481 5477 5473 5468 5463 5458 5452 5445 5438 5431 5422 5414 5405 5396 5385 5375 5365 5356 5347 5339 5331 5323 5314 5305 5297 5290 5284 5279 5274 5270 5267 5264 5261 5259 5256 5255 5255 5257